Time,TemperatureF,DewpointF,PressureIn,WindDirection,WindDirectionDegrees,WindSpeedMPH,WindSpeedGustMPH,Humidity,HourlyPrecipIn,Conditions,Clouds,dailyrainin,SoftwareType,DateUTC
2013-07-27 00:00:00,52.0,47.0,-100.00,North,-999,-999.0,-999.0,84,-99.99,,,0.00,,2013-07-27 07:00:00,
2013-07-27 01:00:00,52.0,-99.9,-100.00,North,-999,-999.0,-999.0,-999,-99.99,,,0.00,,2013-07-27 08:00:00,
2013-07-27 01:53:00,52.0,-99.9,-100.00,North,-999,-999.0,-999.0,-999,-99.99,,,0.00,,2013-07-27 08:53:00,
2013-07-27 02:00:00,52.0,41.0,-100.00,NE,46,2.0,3.0,67,-99.99,,,0.00,,2013-07-27 09:00:00,
2013-07-27 03:00:00,50.0,36.0,-100.00,NNE,18,2.0,3.0,57,-99.99,,,0.00,,2013-07-27 10:00:00,
2013-07-27 04:00:00,49.0,33.0,-100.00,NE,43,2.0,3.0,52,-99.99,,,0.00,,2013-07-27 11:00:00,
2013-07-27 05:00:00,51.0,33.0,-100.00,NE,54,2.0,2.0,50,-99.99,,,0.00,,2013-07-27 12:00:00,
2013-07-27 06:00:00,52.0,36.0,-100.00,NE,37,2.0,3.0,53,-99.99,,,0.00,,2013-07-27 13:00:00,
2013-07-27 07:00:00,53.0,35.0,-100.00,ESE,105,1.0,3.0,51,-99.99,,,0.00,,2013-07-27 14:00:00,
2013-07-27 08:00:00,53.0,37.0,-100.00,NNE,30,1.0,3.0,55,-99.99,,,0.00,,2013-07-27 15:00:00,
2013-07-27 09:00:00,54.0,42.0,-100.00,NE,38,2.0,4.0,62,-99.99,,,0.00,,2013-07-27 16:00:00,
2013-07-27 10:00:00,55.0,45.0,-100.00,North,6,2.0,3.0,69,-99.99,,,0.00,,2013-07-27 17:00:00,
2013-07-27 10:53:00,55.0,45.0,-100.00,North,6,2.0,3.0,69,-99.99,,,0.00,,2013-07-27 17:53:00,
2013-07-27 11:00:00,55.0,46.0,-100.00,NE,35,2.0,4.0,71,-99.99,,,0.00,,2013-07-27 18:00:00,
2013-07-27 12:00:00,55.0,47.0,-100.00,NNE,30,2.0,4.0,74,-99.99,,,0.01,,2013-07-27 19:00:00,
2013-07-27 13:00:00,56.0,48.0,-100.00,NW,308,2.0,5.0,76,-99.99,,,0.01,,2013-07-27 20:00:00,
2013-07-27 14:00:00,57.0,48.0,-100.00,ENE,67,2.0,5.0,73,-99.99,,,0.01,,2013-07-27 21:00:00,
2013-07-27 15:00:00,57.0,48.0,-100.00,ENE,68,2.0,5.0,71,-99.99,,,0.01,,2013-07-27 22:00:00,
2013-07-27 16:00:00,59.0,50.0,-100.00,NNE,15,2.0,6.0,70,-99.99,,,0.00,,2013-07-27 23:00:00,
2013-07-27 16:53:00,59.0,50.0,-100.00,NNE,15,2.0,6.0,70,-99.99,,,0.00,,2013-07-27 23:53:00,
2013-07-27 17:00:00,57.0,47.0,-100.00,NW,322,2.0,4.0,69,-99.99,,,0.01,,2013-07-28 00:00:00,
2013-07-27 18:00:00,56.0,47.0,-100.00,NNW,332,2.0,3.0,71,-99.99,,,0.00,,2013-07-28 01:00:00,
2013-07-27 19:00:00,54.0,47.0,-100.00,NNW,337,2.0,5.0,75,-99.99,,,0.00,,2013-07-28 02:00:00,
2013-07-27 20:00:00,52.0,46.0,-100.00,West,260,1.0,3.0,79,-99.99,,,0.01,,2013-07-28 03:00:00,
2013-07-27 21:00:00,48.0,44.0,-100.00,North,4,0.0,1.0,85,-99.99,,,0.01,,2013-07-28 04:00:00,
2013-07-27 21:53:00,48.0,44.0,-100.00,North,4,0.0,1.0,85,-99.99,,,0.01,,2013-07-28 04:53:00,
2013-07-27 22:00:00,48.0,45.0,-100.00,ENE,67,0.0,1.0,90,-99.99,,,0.00,,2013-07-28 05:00:00,
2013-07-27 22:43:00,48.0,45.0,-100.00,ENE,67,0.0,1.0,90,-99.99,,,0.00,,2013-07-28 05:43:00,
2013-07-27 22:53:00,48.0,45.0,-100.00,ENE,67,0.0,1.0,90,-99.99,,,0.00,,2013-07-28 05:53:00,
2013-07-27 23:00:00,48.0,44.0,-100.00,ENE,62,1.0,1.0,87,-99.99,,,0.00,,2013-07-28 06:00:00,